ARIANE 1 DEB, 40778

Orbit data source: Space-Track

ARIANE 1 DEB, 40778 is space debris in HEO originally from a launch on Mon, 24 Dec 1979 UTC launched from the French Guiana (FRGUI). Debris objects in space refer to the collection of defunct objects orbiting the Earth. Examples of debris include non-operational satellites, rocket bodies, and fragments generated from explosions, collisions, or faulty payload assembly.

Loading next visibility...
Identifier
40778, 1979-104AF
Orbit
HEO
Country
Flag of FRFR
Related business
Manufacturer
Unknown
Mission
Spacecraft
Bus & Motor
Unknown
Mass
Unknown
Launch date (UTC)
1979-12-24 (46 years ago)
Launch vehicle
Unknown
Launch site
French Guiana (FRGUI)
Object type
Payload
Rocket body
Debris
Shape & HBR
Unknown shape, 0.1 m
Radar Cross Section
Medium (>0.1 m² and <1 m²)

Expand to show TLE details & history
Last TLE update: 3 days ago

TLE from 3 days ago
0 ARIANE 1 DEB
1 40778U 79104AF  26170.47148507  .00000623  00000-0  14704-2 0  9998
2 40778  17.9401  97.1207 4833051 110.3225  18.1400  5.58109007254622
Epoch: 2026-06-19T11:18Z
TLE epoch observation values (Epoch: 2026-06-19T11:18:56.310Z)
Latitude
4.84747°
Longitude
-175.44485°
Altitude
1,625.446 km
Speed
8.362 km/s
True Right ascension
17h 27m 57s
True Declination
4° 49' 18"
Sunlit
Object was in full shadow at epoch
Visualization orbit readout
Latitude
Unknown
Longitude
Unknown
Altitude
Unknown
Speed
Unknown
Apparent Right ascension
Unknown
Apparent Declination
Unknown
Sunlit
N/A
Visualization observer readout
Local Sidereal Time
21:37:17
Azimuth
Unknown
Elevation
Unknown
Doppler factor
Unknown
Orbital elements
Apogee altitude
13,541.843 km
Perigee altitude
560.794 km
Semi-major axis
13,429.456 km
Eccentricity
0.48331
Inclination
17.9401°
RAAN
97.1207°
Arg. of periapsis
110.3225°
True anomaly
53.85013°
Mean anomaly
18.14°
Eccentric anomaly
33.37242°
Mean motion
1.39462 °/min
Orbital period
258.14 mins
BSTAR
0.0014704
Loading maneuver chart data...
Computing Atmospheric mass density...
Loading historical data...
Loading historical data...
Loading historical data...
Loading historical data...
Loading historical data...
Loading historical data...
Loading historical data...

Documentation

Showing up to 5 results
|